User: anonymous   Login
Location: Mason Neck State Park
(38.6428°N, 77.1981°W)
Time: 13:09:24
(UTC-05:00)
Language:

Cosmos 1400 Rocket - Orbit

View from above orbital plane
View from above orbital plane
View from above satellite
View from above satellite

Ground track
Ground track

The orbit data is extracted from the following two-line orbital elements,

1 13403U 82079B   18020.95324014 +.00000204 +00000-0 +12033-4 0  9995
2 13403 081.1693 019.8863 0032845 280.1068 079.6451 15.06769480929292
Epoch (UTC): 20 January 2018 22:52:39
Eccentricity: 0.0032845
inclination: 81.1693°
perigee height: 523 km
apogee height: 569 km
right ascension of ascending node: 19.8863°
argument of perigee: 280.1068°
revolutions per day: 15.06769480
mean anomaly at epoch: 79.6451°
orbit number at epoch: 92929

The dashed part of the orbit path shows where the satellite is in the earth's shadow,  

DLR